This is the latest recevied weather packets stored in our database for station/object NM5PB. If no packets are shown the sender has not sent any weather packets the latest 10 day(s).
| Time | Temp. | Humidity | Pressure | Rain* | Wind** | Luminosity | Snow |
|---|---|---|---|---|---|---|---|
| 1777714864 | 0° C | 91% | - | 0 mm | - | - | - |
| 1777714264 | 0° C | 91% | - | 0 mm | - | - | - |
| 1777713664 | 0° C | 91% | - | 0 mm | - | - | - |
| 1777713064 | 0° C | 90% | - | 0 mm | - | - | - |
| 1777712464 | 0° C | 90% | - | 0 mm | - | - | - |
| 1777711864 | 0.56° C | 89% | - | 0 mm | - | - | - |
| 1777711264 | 0.56° C | 88% | - | 0 mm | - | - | - |
| 1777710664 | 0.56° C | 87% | - | 0 mm | - | - | - |
| 1777710064 | 0.56° C | 87% | - | 0 mm | - | - | - |
| 1777709464 | 1.11° C | 86% | - | 0 mm | - | - | - |
| 1777708864 | 1.11° C | 85% | - | 0 mm | - | - | - |
| 1777708264 | 1.67° C | 83% | - | 0 mm | - | - | - |
| 1777707664 | 1.67° C | 82% | - | 0 mm | - | - | - |
| 1777707064 | 2.22° C | 82% | - | 0 mm | - | - | - |
| 1777706464 | 2.22° C | 80% | - | 0 mm | - | - | - |
| 1777705864 | 2.78° C | 79% | - | 0 mm | - | - | - |
| 1777705264 | 2.78° C | 78% | - | 0 mm | - | - | - |
| 1777704664 | 2.78° C | 77% | - | 0 mm | - | - | - |
| 1777704064 | 2.78° C | 76% | - | 0 mm | - | - | - |
| 1777703464 | 3.33° C | 74% | - | 0 mm | - | - | - |
| 1777702864 | 2.78° C | 74% | - | 0 mm | - | - | - |
| 1777702264 | 2.78° C | 76% | - | 0 mm | - | - | - |
| 1777701664 | 2.78° C | 74% | - | 0 mm | - | - | - |
| 1777701064 | 2.22° C | 77% | - | 0 mm | - | - | - |
| 1777700464 | 2.22° C | 78% | - | 0 mm | - | - | - |
* Rain latest hour (hover to see other rain measurements)
** Current wind speed in m/s (hover to see current wind gust speed)